Flag for U.S.A. Weather past 2 weeks in Petersburg, Indiana, U.S.A.

Now
41 °F

Sunny.


Feels Like: 41 °F
Forecast: 22 / 42 °F
Wind: No wind

Location: Huntingburg Airport

Current Time: Mar 28, 2015 at 7:00:02 PM

Latest Report: Mar 28, 2015 at 6:35 PM


Visibility: 10 mi

Pressure: 30.30 "Hg

Humidity: 39%

Dew point: 18 °F

Location of PetersburgLocation

Historic Weather in Petersburg — Graph

°F

Petersburg temperature yesterday

Maximum temperature yesterday: 39 °F (at 10:55 AM)
Minimum temperature yesterday: 28 °F (at 5:15 AM)
Average temperature yesterday: 35 °F

Past Weeks' High & Low Weather Summary

 TemperatureHumidityPressure
High73 °F (Mar 16, 2:35 PM)94% (Mar 13, 5:15 PM)30.35 "Hg (Mar 13, 5:15 PM)
Low21 °F (Mar 28, 6:55 AM)23% (Mar 22, 2:35 PM)29.86 "Hg (Mar 26, 6:15 AM)
Average48 °F64%30.11 "Hg
* Reported Mar 13 5:15 PM — Mar 28 5:55 PM, Petersburg, Weather by CustomWeather, © 2015

Note: Actual official high and low records may vary slightly from our data, if they occured in-between our weather recording intervals... More about our weather records

Advertising

Petersburg weather history for previous 24 hours

 ConditionsComfort  
Time TempWeatherWind HumidityBarometerVisibility
5:55 PM
Sat, Mar 28
41 °FSunny.6 mph39%30.29 "Hg10 mi
5:35 PM41 °FSunny.7 mph39%30.29 "Hg10 mi
4:55 PM39 °FSunny.5 mph42%30.29 "Hg10 mi
4:35 PM41 °FSunny.3 mph42%30.30 "Hg10 mi
4:15 PM41 °FSunny.3 mph42%30.30 "Hg10 mi
3:55 PM39 °FSunny.5 mph45%30.30 "Hg10 mi
3:35 PM39 °FSunny.3 mph45%30.30 "Hg10 mi
3:15 PM39 °FSunny.6 mph45%30.31 "Hg10 mi
2:55 PM37 °FSunny.6 mph41%30.32 "Hg10 mi
2:35 PM36 °FSunny.5 mph48%30.32 "Hg10 mi
2:15 PM36 °FSunny.3 mph48%30.32 "Hg10 mi
1:55 PM36 °FSunny.6 mph44%30.33 "Hg10 mi
1:35 PM36 °FSunny.8 mph44%30.33 "Hg10 mi
1:15 PM34 °FSunny.8 mph48%30.33 "Hg10 mi
12:55 PM34 °FSunny.9 mph51%30.33 "Hg10 mi
12:35 PM34 °FSunny.8 mph51%30.33 "Hg10 mi
12:15 PM32 °FSunny.7 mph51%30.33 "Hg10 mi
11:55 AM30 °FSunny.7 mph55%30.33 "Hg10 mi
11:35 AM30 °FSunny.6 mph55%30.32 "Hg10 mi
11:15 AM28 °FSunny.7 mph59%30.32 "Hg10 mi
10:55 AM28 °FSunny.7 mph59%30.32 "Hg10 mi
10:35 AM27 °FSunny.7 mph54%30.31 "Hg10 mi
10:15 AM27 °FSunny.9 mph64%30.31 "Hg10 mi
9:55 AM25 °FSunny.8 mph59%30.30 "Hg10 mi
9:35 AM25 °FSunny.13 mph63%30.29 "Hg10 mi
9:15 AM25 °FSunny.10 mph59%30.29 "Hg10 mi
8:55 AM23 °FSunny.9 mph63%30.28 "Hg10 mi
8:35 AM23 °FClear.12 mph63%30.27 "Hg10 mi
8:15 AM21 °FClear.10 mph68%30.26 "Hg10 mi
7:55 AM21 °FClear.8 mph68%30.25 "Hg10 mi
7:35 AM21 °FClear.7 mph68%30.24 "Hg10 mi
7:15 AM21 °FClear.7 mph68%30.23 "Hg10 mi
6:55 AM21 °FClear.8 mph68%30.22 "Hg10 mi
6:35 AM23 °FClear.7 mph63%30.22 "Hg10 mi
6:15 AM23 °FClear.7 mph63%30.21 "Hg10 mi
5:55 AM23 °FClear.6 mph63%30.20 "Hg10 mi
5:35 AM23 °FClear.7 mph63%30.20 "Hg10 mi
5:15 AM23 °FClear.5 mph63%30.19 "Hg10 mi
4:55 AM25 °FClear.6 mph59%30.20 "Hg10 mi
4:35 AM25 °FClear.6 mph59%30.20 "Hg10 mi
4:15 AM25 °FClear.5 mph59%30.19 "Hg10 mi
3:55 AM25 °FClear.5 mph63%30.19 "Hg10 mi
3:35 AM25 °FClear.6 mph69%30.20 "Hg10 mi
3:15 AM25 °FClear.3 mph69%30.20 "Hg10 mi
2:55 AM25 °FClear.6 mph69%30.19 "Hg10 mi
2:35 AM25 °FClear.5 mph69%30.19 "Hg10 mi
2:15 AM27 °FClear.6 mph64%30.18 "Hg10 mi
1:55 AM27 °FClear.6 mph64%30.19 "Hg10 mi
1:35 AM27 °FClear.5 mph64%30.18 "Hg10 mi
1:15 AM27 °FClear.6 mph69%30.19 "Hg10 mi
12:55 AM28 °FClear.7 mph64%30.18 "Hg10 mi
12:35 AM28 °FClear.7 mph64%30.19 "Hg10 mi
11:35 PM
Fri, Mar 27
28 °FClear.6 mph64%30.17 "Hg10 mi
11:15 PM30 °FPassing clouds.7 mph59%30.17 "Hg10 mi
10:55 PM30 °FPassing clouds.8 mph59%30.16 "Hg10 mi
10:35 PM30 °FClear.9 mph59%30.16 "Hg10 mi
10:15 PM30 °FPassing clouds.6 mph64%30.15 "Hg10 mi
9:55 PM30 °FPassing clouds.7 mph64%30.15 "Hg10 mi
9:35 PM30 °FClear.8 mph69%30.15 "Hg10 mi
9:15 PM32 °FPassing clouds.8 mph64%30.15 "Hg10 mi
8:55 PM34 °FScattered clouds.7 mph60%30.14 "Hg10 mi
8:35 PM34 °FScattered clouds.9 mph60%30.13 "Hg10 mi
8:15 PM34 °FPassing clouds.10 mph60%30.12 "Hg10 mi
7:55 PM34 °FScattered clouds.13 mph60%30.12 "Hg10 mi
7:35 PM36 °FBroken clouds.18 mph56%30.12 "Hg10 mi
7:15 PM36 °FMore clouds than sun.14 mph56%30.10 "Hg10 mi
Weather by CustomWeather, © 2015

See weather overviewHow to use our weather pages